CAPE
0 0 0 0 0 0 0 0 0 0 1 4 10 105 266 384 247 123 0 0 6 57 99 83 92 167 220 200 232 197 281 287
0 0 0 0 0 0 0 0 0 0 21 1 129 79 16 111 335 243 91 2 4 26 75 85 120 77 316 286 164 161 270 313
0 0 0 0 0 0 0 0 0 0 0 0 22 3 54 197 140 367 122 60 0 14 15 72 107 160 209 104 260 171 157 344
0 0 0 0 0 0 0 0 0 0 0 0 0 0 20 254 172 413 114 101 96 22 41 62 125 198 239 116 196 253 200 175
0 0 0 0 0 0 0 0 0 0 0 0 0 7 29 154 148 171 331 222 109 58 56 50 136 152 172 127 213 327 217 264
0 0 0 0 0 0 0 0 0 0 0 0 16 30 65 244 234 42 112 84 148 83 50 57 166 145 139 173 158 394 261 228
0 0 0 0 0 0 0 0 0 0 0 0 1 51 250 302 379 165 260 290 143 81 48 32 25 22 271 336 454 462 453 398
0 0 0 0 0 0 0 0 0 0 0 0 0 0 60 375 415 313 185 92 64 5 7 0 1 10 40 58 149 448 505 458
0 0 0 0 0 0 0 0 0 0 0 0 2 0 0 5 149 301 252 40 7 0 2 2 1 1 0 1 4 72 205 482
0 0 0 0 0 0 0 0 0 0 0 0 0 0 0 1 45 95 63 0 0 0 0 0 1 0 2 0 12 14 30 58
0 0 0 0 0 0 0 0 0 0 0 0 0 0 0 0 0 1 0 0 0 0 0 0 0 1 1 0 0 3 3 2
0 0 0 0 0 0 0 0 0 0 0 0 0 0 0 0 0 0 0 0 0 0 0 0 0 1 1 0 0 2 3 0
0 0 0 0 0 0 0 0 0 0 0 0 0 0 0 0 0 0 0 0 0 0 0 1 0 1 0 0 6 10 6 7
0 0 0 0 0 0 0 0 0 0 0 0 0 0 0 0 0 0 0 0 0 0 0 0 0 1 0 1 3 3 6 6
0 0 0 0 0 0 0 0 0 0 0 0 0 1 0 0 0 0 0 0 0 0 0 0 0 0 0 3 1 1 2 4
8 6 0 0 0 0 0 0 0 0 0 0 0 9 1 0 0 0 0 0 0 0 1 1 0 0 0 0 0 0 1 1
21 36 60 15 1 0 0 0 0 0 0 0 1 0 0 0 0 0 0 0 0 0 0 1 1 1 0 0 0 0 1 1
18 24 14 10 4 2 0 0 0 0 0 0 0 0 0 0 0 0 0 0 0 0 1 3 1 1 1 0 0 1 1 2
0 14 4 21 12 0 0 0 0 0 0 0 0 0 0 0 0 0 0 0 0 0 0 1 0 1 0 0 0 1 2 1
CIN
0 0 0 0 0 0 0 0 0 0 -11 -18 -272 -251 -289 -322 -374 -410 -10 0 -305 -363 -302 -357 -326 -247 -263 -261 -260 -281 -263 -252
0 0 0 0 0 0 0 0 0 0 -124 -37 -105 -161 -263 -329 -334 -361 -449 -205 -312 -449 -378 -359 -327 -353 -255 -243 -213 -230 -216 -230
0 0 0 0 0 0 0 0 0 0 0 0 -189 -87 -199 -326 -400 -382 -447 -490 0 -502 -505 -431 -350 -304 -218 -242 -172 -161 -210 -221
0 0 0 0 0 0 0 0 0 0 0 0 0 0 -318 -310 -381 -412 -487 -483 -486 -495 -499 -492 -416 -353 -266 -319 -254 -231 -213 -179
0 0 0 0 0 0 0 0 0 0 0 0 -19 -177 -325 -248 -355 -452 -446 -456 -477 -512 -462 -445 -386 -346 -315 -307 -262 -192 -159 -181
0 0 0 0 0 0 0 0 0 0 0 0 -189 -265 -329 -296 -356 -451 -461 -459 -432 -453 -470 -437 -335 -317 -303 -281 -239 -151 -212 -223
0 0 0 0 0 0 0 0 0 0 0 0 -16 -267 -288 -324 -318 -349 -324 -332 -397 -441 -481 -465 -436 -414 -200 -179 -121 -107 -138 -149
0 0 0 0 0 0 0 0 0 0 0 0 0 0 -375 -294 -290 -292 -316 -345 -379 -285 -473 0 -214 -417 -336 -293 -175 -50 -13 -59
0 0 0 0 0 0 0 0 0 0 0 0 -270 -37 0 -331 -358 -283 -266 -391 -337 0 0 0 0 0 0 0 -118 -174 -93 -4
0 0 0 0 0 0 0 0 0 0 0 0 0 0 0 -18 -356 -300 -318 0 0 0 0 0 0 -1 -2 0 -177 -199 -144 -97
0 0 0 0 0 0 0 0 0 0 0 0 0 0 0 0 0 -26 0 0 0 0 0 0 -1 0 0 0 0 0 0 0
0 0 0 0 0 0 0 0 0 0 0 0 0 0 0 0 0 0 0 0 0 0 0 0 0 0 0 0 0 0 0 0
0 0 0 0 0 0 0 0 0 0 0 0 0 0 0 0 0 0 0 0 0 0 0 0 0 0 -1 0 0 0 0 0
0 0 0 0 0 0 0 0 0 0 0 0 0 0 0 0 0 0 0 0 0 0 0 0 0 0 0 0 0 0 0 0
0 0 0 0 0 0 0 0 0 0 0 0 0 -1 0 0 0 0 0 0 0 0 0 0 0 0 0 0 0 0 0 0
-33 -238 0 0 0 0 0 0 0 0 0 0 0 -4 -1 0 0 0 0 0 0 0 0 0 0 0 0 0 0 0 0 0
-159 -540 -469 -397 -213 0 0 0 0 0 0 0 0 -2 0 0 0 0 0 0 0 0 0 0 0 0 0 0 0 0 0 0
-150 -321 -140 -257 -428 -325 0 0 0 0 0 0 0 0 0 0 0 0 0 0 0 0 0 0 0 0 0 0 0 0 0 0
0 -482 -313 -597 -620 0 0 0 0 0 0 0 0 0 0 0 0 0 0 0 0 0 0 0 0 0 0 0 0 0 0 0
Wind_Speed
4 4 9 4 2 4 9 4 4 3 6 6 4 3 3 4 5 8 9 9 13 12 14 12 13 14 13 7 10 9 12 10
2 5 6 5 7 4 4 5 3 4 4 5 3 4 5 6 5 1 6 8 8 11 12 12 9 7 11 11 11 9 9 9
1 2 8 2 1 7 6 4 7 3 7 7 7 4 1 2 2 4 6 7 7 6 6 7 6 12 15 15 14 10 12 12
0 4 2 4 5 6 7 4 1 3 7 3 6 4 2 3 0 2 2 7 8 9 10 12 13 12 13 9 14 16 12 9
6 7 3 6 3 5 5 4 6 7 7 1 3 3 3 2 1 0 2 1 1 3 5 8 12 14 14 11 8 10 9 10
9 9 4 5 3 5 5 4 6 7 4 5 5 6 6 5 1 1 3 4 2 1 2 2 3 5 9 12 9 12 11 12
2 4 3 4 5 7 6 5 6 5 8 8 7 7 6 5 3 3 2 2 4 4 4 3 3 3 3 3 5 10 13 13
2 1 3 3 2 6 4 4 2 5 5 4 4 4 5 6 3 3 2 3 4 5 6 6 5 4 4 4 2 3 8 13
2 2 3 3 6 5 3 4 8 5 8 3 4 7 4 5 5 5 5 3 4 3 4 4 6 6 6 5 5 3 6 9
4 2 3 7 4 4 5 3 3 2 4 5 6 3 4 5 6 6 6 5 4 2 2 3 2 3 4 4 3 4 7 9
7 4 4 1 5 6 6 7 5 5 6 3 3 2 6 7 6 3 4 4 4 3 2 2 2 3 4 4 5 5 8 10
4 6 6 9 4 4 4 4 9 7 7 6 5 1 6 3 3 4 6 4 4 2 1 3 4 5 5 5 5 7 10 12
3 3 6 6 4 4 5 10 6 9 5 7 6 3 3 4 4 4 3 4 2 2 2 3 4 4 3 5 6 8 10 13
4 5 4 8 5 8 9 2 5 5 4 5 5 4 5 4 4 4 4 3 3 1 2 2 4 2 3 5 7 8 11 13
9 9 5 7 3 4 4 4 3 5 4 6 5 5 6 4 4 2 2 1 1 2 2 0 3 1 2 3 5 9 10 12
5 3 3 3 2 4 3 3 3 3 5 5 5 7 7 5 5 4 2 2 2 2 2 2 2 2 2 0 3 7 10 12
0 2 1 4 3 6 6 6 6 5 4 5 10 8 6 5 4 3 2 0 2 3 3 2 2 2 2 3 1 8 6 8
6 9 5 4 8 8 8 6 6 6 6 4 5 7 6 5 3 4 4 1 4 3 3 4 3 4 1 4 3 7 6 5
2 7 3 6 8 6 7 6 6 7 6 9 5 6 6 5 3 4 4 4 4 4 4 2 3 4 2 4 7 6 6 4
Wind_Direction
204 150 136 175 153 170 101 10 69 252 290 319 355 14 46 84 123 161 177 174 180 191 196 193 188 194 186 194 216 197 204 203
290 102 39 140 152 81 12 131 201 294 278 236 297 331 48 14 49 202 175 186 183 191 198 198 188 170 169 201 205 212 204 204
135 147 163 79 46 53 110 109 152 167 256 215 207 218 29 116 354 293 205 192 196 198 190 186 185 181 194 202 207 193 199 202
135 321 271 123 144 130 123 225 74 148 265 217 222 263 280 108 113 314 191 177 173 179 174 181 190 191 217 205 196 195 226 192
7 359 356 91 112 103 103 92 190 138 259 322 258 243 263 249 271 270 131 184 335 155 182 183 190 201 216 214 202 190 190 197
181 200 158 128 140 120 122 119 170 218 233 220 203 200 222 238 268 308 234 202 197 236 245 237 238 217 217 220 201 180 175 199
94 121 137 143 166 172 177 169 150 234 201 236 206 186 209 221 257 224 256 33 33 26 15 10 346 309 287 272 207 195 198 203
89 195 177 198 182 193 169 141 104 131 245 203 198 165 196 208 215 250 252 68 27 32 35 31 30 20 354 332 301 183 201 218
223 16 113 343 210 200 158 170 147 163 223 162 224 241 215 196 205 220 223 144 118 94 64 32 3 2 12 354 337 287 241 229
154 79 199 238 295 224 152 170 204 198 206 207 219 249 267 218 202 212 192 169 146 108 47 15 349 5 336 344 332 285 267 259
132 169 281 316 186 146 165 244 203 213 234 211 77 48 287 217 215 191 161 155 151 151 222 307 321 345 342 355 343 324 307 280
136 132 188 232 232 129 96 278 216 191 207 157 128 140 254 266 149 111 121 146 162 131 295 316 338 338 336 353 323 312 300 289
127 145 282 241 166 136 118 236 192 185 183 145 192 195 305 94 79 114 124 127 132 158 263 288 296 327 325 342 333 320 314 298
96 92 250 153 93 158 210 219 171 176 169 170 143 153 133 134 135 149 167 165 171 212 262 326 311 1 352 12 322 342 341 336
166 202 238 201 160 176 141 129 157 165 152 155 149 169 154 148 143 159 221 226 159 235 255 290 299 262 102 327 341 19 357 2
110 219 193 214 115 75 121 113 140 125 137 145 139 124 126 141 160 157 145 168 154 181 185 196 243 137 175 48 43 45 16 12
0 308 316 253 180 126 108 105 111 103 129 143 144 145 152 148 133 122 99 249 146 149 136 134 118 116 174 113 56 72 46 23
197 194 156 210 146 133 129 139 147 130 134 132 150 150 137 125 137 127 126 126 86 85 99 115 114 107 105 96 61 92 68 42
308 149 94 111 108 121 134 146 149 147 156 152 151 136 135 133 156 129 112 87 73 71 80 109 114 114 114 96 92 79 81 69